Location: Hartford
(41.7640°N, 72.6860°W)
Time: 22:10:51
(UTC-04:00)

ISS - Visible Passes

Search period start: 20 October 2014 00:00
Search period end: 30 October 2014 00:00
Orbit: 413 x 416 km, 51.6° (Epoch: 20 October)

Date Brightness Start Highest point End Pass type
(mag) Time Alt. Az. Time Alt. Az. Time Alt. Az.
20 Oct -1.7 19:43:46 10° NW 19:46:07 26° N 19:46:07 26° N visible
21 Oct -1.6 18:54:51 10° NW 18:57:30 21° NNE 18:59:06 16° NE visible
21 Oct -0.3 20:31:13 10° NW 20:31:58 16° NW 20:31:58 16° NW visible
22 Oct -2.7 19:42:12 10° NW 19:45:00 48° N 19:45:00 48° N visible
23 Oct -2.4 18:53:12 10° NW 18:56:19 35° NNE 18:58:05 20° E visible
23 Oct -0.3 20:29:58 10° WNW 20:30:57 17° W 20:30:57 17° W visible
24 Oct -2.9 19:40:40 10° WNW 19:43:57 58° SW 19:44:08 56° SSW visible
25 Oct -3.4 18:51:28 10° NW 18:54:49 80° NE 18:57:25 16° ESE visible
25 Oct 0.0 20:29:41 10° WSW 20:30:19 11° WSW 20:30:19 11° WSW visible
26 Oct -0.9 19:39:28 10° W 19:42:04 21° SW 19:43:47 15° S visible
27 Oct -1.8 18:49:52 10° WNW 18:52:58 37° SW 18:56:03 10° SSE visible
29 Oct -0.2 18:48:57 10° W 18:50:46 14° SW 18:52:35 10° SSW visible
